Location: Ferchesar
(52.6477°N, 12.4298°E)
Time: 17:38:54
(UTC+01:00)

deb Explorer IX - Visible Passes

Search period start: 03 December 2022 00:00
Search period end: 13 December 2022 00:00
Orbit: 533 x 1057 km, 38.8° (Epoch: 02 December)

Date Brightness Start Highest point End Pass type
(mag) Time Alt. Az. Time Alt. Az. Time Alt. Az.
03 Dec ? 06:59:52 10° SSW 07:02:02 13° S 07:04:18 10° SE visible
04 Dec ? 06:28:54 10° SSW 06:30:44 12° S 06:32:38 10° SE visible
05 Dec ? 05:57:55 10° S 05:59:26 12° SSE 06:00:58 10° SSE visible
06 Dec ? 05:27:01 10° S 05:28:07 11° SSE 05:29:13 10° SSE visible
06 Dec ? 07:11:13 10° SSW 07:13:08 13° S 07:15:07 10° SSE visible
07 Dec ? 04:56:48 10° SSE 04:56:48 10° SSE 04:57:17 10° SSE visible
07 Dec ? 06:40:02 10° SSW 06:41:48 12° S 06:43:36 10° SSE visible
08 Dec ? 06:08:49 10° SSW 06:10:26 12° S 06:12:06 10° SSE visible
09 Dec ? 05:38:06 11° SSW 05:39:04 12° S 05:40:38 10° SSE visible
10 Dec ? 05:08:19 11° S 05:08:19 11° S 05:09:11 10° SSE visible
